COSMOS 886 DEB, 9653

Orbit data source: Space-Track

COSMOS 886 DEB, 9653 is space debris in LEO originally from a launch on Mon, 27 Dec 1976 UTC launched from the Tyuratam Missile And Space Complex (TTMTR). Debris objects in space refer to the collection of defunct objects orbiting the Earth. Examples of debris include non-operational satellites, rocket bodies, and fragments generated from explosions, collisions, or faulty payload assembly.

Loading next visibility...
Identifier
9653, 1976-126K
Orbit
LEO
Country
Flag of CISCIS
Related business
Manufacturer
Unknown
Mission
Spacecraft
Bus & Motor
Unknown
Mass
Unknown
Launch date (UTC)
1976-12-27 (49 years ago)
Launch vehicle
Unknown
Launch site
Tyuratam Missile And Space Complex (TTMTR)
Object type
Payload
Rocket body
Debris
Shape & HBR
Unknown shape, 0.1 m
Radar Cross Section
Medium (>0.1 m² and <1 m²)

Expand to show TLE details & history
Last TLE update: 18 hours ago

TLE from 18 hours ago
0 COSMOS 886 DEB
1 09653U 76126K   26175.12224601  .00000668  00000-0  27584-3 0  9993
2 09653  65.7632 167.1053 0784165 172.8786 188.4223 13.30354466344966
Epoch: 2026-06-24T02:56Z
TLE epoch observation values (Epoch: 2026-06-24T02:56:02.055Z)
Latitude
0.00002°
Longitude
-149.18724°
Altitude
1,731.939 km
Speed
6.735 km/s
True Right ascension
11h 08m 25s
True Declination
0° 00' 00"
Sunlit
Object was in daylight at epoch
Visualization orbit readout
Latitude
Unknown
Longitude
Unknown
Altitude
Unknown
Speed
Unknown
Apparent Right ascension
Unknown
Apparent Declination
Unknown
Sunlit
N/A
Visualization observer readout
Local Sidereal Time
08:03:33
Azimuth
Unknown
Elevation
Unknown
Doppler factor
Unknown
Orbital elements
Apogee altitude
1,733.828 km
Perigee altitude
554.113 km
Semi-major axis
7,522.108 km
Eccentricity
0.07842
Inclination
65.7632°
RAAN
167.1053°
Arg. of periapsis
172.8786°
True anomaly
187.22294°
Mean anomaly
188.4223°
Eccentric anomaly
187.81163°
Mean motion
3.32685 °/min
Orbital period
108.21 mins
BSTAR
0.00027584
Loading maneuver chart data...
Computing Atmospheric mass density...

Documentation

Showing up to 5 results
|